This demonstration page uses our WeatherBlox Daily Observations layout. Learn more.

Left ArrowRight Arrow

Hourly Observations for May 29, 2021

Temp ( °F °C ) Dew Point ( °F °C ) Humidity (%) Winds ( mph kmh ) Pressure ( in mb ) Visibility ( mi km ) Precip ( " mm )
12:15 am 00:15 Clear 48 9.1 45 7.1 87 87 E 14 22 30.14 1021 10 16 N/A
12:35 am 00:35 Clear 48 8.7 45 7.1 90 90 E 13 20 30.13 1020 10 16 N/A
12:55 am 00:55 Clear 47 8.5 45 7 90 90 E 13 20 30.15 1021 10 16 N/A
1:15 am 01:15 Clear 47 8.3 44 6.8 90 90 ESE 10 17 30.15 1021 10 16 N/A
1:35 am 01:35 Clear 46 8 44 6.7 92 92 ESE 8 13 30.15 1021 10 16 N/A
1:55 am 01:55 undefined 46 7.7 44 6.5 92 92 E 9 15 30.15 1021 10 16 N/A
2:15 am 02:15 undefined 46 7.7 44 6.5 92 92 ESE 8 13 30.16 1021 10 16 N/A
2:35 am 02:35 Clear 46 7.6 44 6.5 93 93 ESE 10 17 30.16 1021 10 16 N/A
2:55 am 02:55 Clear 46 7.6 43 6.3 92 92 ESE 9 15 30.17 1022 10 16 N/A
3:15 am 03:15 Clear 46 7.5 43 6.1 91 91 ESE 9 15 30.18 1022 10 16 N/A
3:35 am 03:35 undefined 45 7.2 43 6 92 92 ESE 8 13 30.18 1022 10 16 N/A
3:55 am 03:55 Clear 45 7.1 43 6 93 93 ESE 8 13 30.18 1022 10 16 N/A
4:15 am 04:15 Clear 45 7 42 5.8 92 92 ESE 9 15 30.18 1022 10 16 N/A
4:35 am 04:35 Clear 45 7 42 5.8 92 92 SE 7 11 30.19 1022 10 16 N/A
4:55 am 04:55 Partly Cloudy 44 6.6 42 5.5 93 93 ESE 7 11 30.19 1022 10 16 N/A
5:15 am 05:15 undefined 44 6.5 42 5.5 93 93 ESE 6 9 30.20 1023 10 16 N/A
5:35 am 05:35 undefined 43 6.3 42 5.5 95 95 E 5 7 30.23 1024 10 16 N/A
5:55 am 05:55 undefined 43 6.2 42 5.5 95 95 E 7 11 30.23 1024 10 16 N/A
6:15 am 06:15 undefined 43 6.2 42 5.5 95 95 ESE 7 11 30.22 1023 10 16 N/A
6:35 am 06:35 undefined 44 6.5 42 5.6 94 94 SE 10 17 30.20 1023 7 11 N/A
6:55 am 06:55 undefined 44 6.7 42 5.8 94 94 ESE 6 9 30.23 1024 10 16 N/A
7:15 am 07:15 Cloudy 45 7.1 43 6 93 93 SE 9 15 30.23 1024 10 16 N/A
7:35 am 07:35 Cloudy 46 7.5 43 6.2 92 92 SE 9 15 30.23 1024 10 16 N/A
7:55 am 07:55 Cloudy 46 7.9 43 6.1 89 89 SE 9 15 30.23 1024 10 16 N/A
8:15 am 08:15 Cloudy 47 8.1 44 6.5 90 90 SE 7 11 30.23 1024 10 16 N/A
8:35 am 08:35 Cloudy 47 8.2 44 6.5 89 89 SSE 9 15 30.21 1023 10 16 N/A
8:55 am 08:55 Cloudy 47 8.3 44 6.6 89 89 SSE 9 15 30.20 1023 10 16 N/A
9:15 am 09:15 Cloudy 47 8.3 44 6.5 89 89 SSE 12 19 30.20 1023 10 16 N/A
9:35 am 09:35 Cloudy with Light Rain 47 8.3 44 6.5 89 89 S 8 13 30.19 1022 10 16 N/A
9:55 am 09:55 Cloudy 47 8.5 44 6.7 89 89 SSE 12 19 30.16 1021 10 16 N/A
10:15 am 10:15 Cloudy with Light Rain 47 8.5 45 7.1 91 91 SSE 15 24 30.13 1020 7 11 N/A
10:35 am 10:35 Cloudy 48 8.8 45 7.3 90 90 S 15 24 30.13 1020 10 16 N/A
10:55 am 10:55 Cloudy 49 9.5 46 7.6 88 88 S 15 24 30.13 1020 10 16 N/A
11:15 am 11:15 Cloudy 50 10 46 7.6 85 85 S 9 15 30.16 1021 10 16 N/A
11:35 am 11:35 Cloudy 50 10.2 46 7.6 84 84 SSW 15 24 30.16 1021 10 16 N/A
11:55 am 11:55 Cloudy 51 10.8 47 8.1 84 84 S 15 24 30.13 1020 10 16 N/A
12:15 pm 12:15 Cloudy 53 11.5 47 8.4 81 81 S 17 28 30.12 1020 10 16 N/A
12:35 pm 12:35 Cloudy 54 12.2 47 8.4 78 78 S 12 19 30.12 1020 10 16 N/A
12:55 pm 12:55 Cloudy 55 13 48 8.9 76 76 S 7 11 30.15 1021 10 16 N/A
1:15 pm 13:15 Cloudy 56 13.6 48 9.1 74 74 SSE 6 9 30.13 1020 10 16 N/A
1:35 pm 13:35 Cloudy 58 14.6 49 9.4 71 71 S 9 15 30.12 1020 10 16 N/A
1:55 pm 13:55 Mostly Cloudy 59 14.9 49 9.7 71 71 SE 12 19 30.11 1020 10 16 N/A
2:15 pm 14:15 Mostly Cloudy 60 15.5 50 9.8 69 69 SE 8 13 30.10 1019 10 16 N/A
2:35 pm 14:35 Mostly Cloudy 62 16.5 50 10 66 66 S 8 13 30.09 1019 10 16 N/A
2:55 pm 14:55 Cloudy 63 17.1 51 10.6 66 66 SSE 9 15 30.08 1019 10 16 N/A
3:15 pm 15:15 Mostly Cloudy 64 17.7 51 10.5 63 63 SSE 10 17 30.07 1018 10 16 N/A
3:35 pm 15:35 Partly Cloudy 65 18.1 51 10.7 62 62 SSE 13 20 30.05 1018 10 16 N/A
3:55 pm 15:55 Partly Cloudy 64 17.8 51 10.5 63 63 SSE 12 19 30.06 1018 10 16 N/A
4:15 pm 16:15 Sunny 65 18.3 52 10.9 62 62 SE 8 13 30.05 1018 10 16 N/A
4:35 pm 16:35 Partly Cloudy 64 18 51 10.6 62 62 ESE 10 17 30.04 1017 10 16 N/A
4:55 pm 16:55 Partly Cloudy 65 18.3 52 11 63 63 SE 8 13 30.04 1017 10 16 N/A
5:15 pm 17:15 Partly Cloudy 64 18 51 10.7 63 63 SE 9 15 30.03 1017 10 16 N/A
5:35 pm 17:35 Partly Cloudy 65 18.5 52 11.2 63 63 ESE 13 20 30.02 1017 10 16 N/A
5:55 pm 17:55 Partly Cloudy 65 18.6 51 10.8 61 61 ESE 12 19 30.02 1017 10 16 N/A
6:15 pm 18:15 Partly Cloudy 65 18.6 51 10.8 61 61 SE 13 20 30.02 1017 10 16 N/A
6:35 pm 18:35 Partly Cloudy 64 17.9 51 10.8 63 63 SE 12 19 30.02 1017 10 16 N/A
6:55 pm 18:55 Partly Cloudy 64 17.7 52 11.1 65 65 SE 10 17 30.04 1017 10 16 N/A
7:15 pm 19:15 Mostly Cloudy 64 17.5 52 11 66 66 ESE 13 20 30.04 1017 10 16 N/A
7:35 pm 19:35 Mostly Cloudy 63 17.4 52 11 66 66 SE 14 22 30.04 1017 10 16 N/A
7:55 pm 19:55 Cloudy 63 17 52 11 68 68 SE 10 17 30.05 1018 10 16 N/A
8:15 pm 20:15 Cloudy 62 16.6 52 10.9 69 69 ESE 12 19 30.06 1018 10 16 N/A
8:35 pm 20:35 Mostly Cloudy 61 16.3 51 10.4 68 68 SE 12 19 30.05 1018 10 16 N/A
8:55 pm 20:55 Mostly Cloudy 60 15.8 50 10 69 69 SE 8 13 30.07 1018 10 16 N/A
9:15 pm 21:15 Partly Cloudy 58 14.7 50 10 74 74 ESE 9 15 30.09 1019 10 16 N/A
9:35 pm 21:35 Clear 57 14.1 50 10.1 77 77 E 9 15 30.10 1019 10 16 N/A
9:55 pm 21:55 Partly Cloudy 56 13.5 50 10 80 80 ESE 9 15 30.11 1020 10 16 N/A
10:15 pm 22:15 undefined 56 13.5 50 10.1 80 80 ESE 10 17 30.11 1020 10 16 N/A
10:35 pm 22:35 Partly Cloudy 56 13.6 49 9.7 77 77 ESE 12 19 30.12 1020 10 16 N/A
10:55 pm 22:55 Clear 56 13.6 49 9.6 77 77 ESE 15 24 30.12 1020 10 16 N/A
11:15 pm 23:15 Mostly Clear with Nearby Thunderstorms 56 13.5 49 9.6 77 77 ESE 15 24 30.12 1020 10 16 N/A
11:35 pm 23:35 Mostly Clear with Nearby Thunderstorms 56 13.5 50 9.8 79 79 SE 13 20 30.13 1020 10 16 N/A
11:55 pm 23:55 Mostly Clear with Nearby Thunderstorms 56 13.5 49 9.6 77 77 SE 15 24 30.12 1020 10 16 N/A

Powered by AerisWeather